Starlink 30196

operational
NORAD ID: 57448 Int'l Des: 2023-105 Owner: SPXS Country: US Constellation: starlink
LEOCIRCULAR

Starlink 30196について

説明を読み込み中...

リアルタイム位置

3D地球を読み込み中...

次回通過

高度履歴

Altitude vs Time

uPlot chart will show altitude changes over time

軌道要素

1 57448U 23105U 25304.85604992 -.00004289 00000-0 -30295-3 0 9993
2 57448 43.0064 241.4381 0001392 277.5058 82.5626 15.02495074126026
Epoch: Oct 31, 2025 • Age: 22 hours

現在のステータス

高度 567.1 km
速度 7.58 km/s
衛星直下点 -31.82°S, 126.18°W
打ち上げ日 Jul 24, 2023
運用期間 2.2 years
タイプ internet

技術仕様

分類 Payload
質量 730.00 kg
乾燥質量 700.00 kg
総質量 730.00 kg
長さ 0.30 m
直径 4.10 m
スパン 29.00 m
形状 Box + pan
製造者 SPXS
バスタイプ Starlink V2M
フェーズステータス In Orbit
所有者/国 SPXS/US

大規模コンステレーション

Loading constellations...